Total_Precipitation_Accumulation
0.09 0.11 0.14 0.11 0.12 0.13 0.14 0.18 0.24 0.16 0.05 0.02 0.03 0.07 0.12 0.14 0.16 0.15 0.13 0.14 0.16 0.19 0.21 0.19 0.15 0.20 0.37 0.84 1.66 2.77 3.13 2.39 1.42 0.91 0.67 0.59 0.54 0.46
0.14 0.17 0.18 0.17 0.16 0.15 0.17 0.17 0.22 0.25 0.14 0.03 0.03 0.07 0.17 0.19 0.17 0.15 0.15 0.16 0.15 0.15 0.17 0.17 0.17 0.18 0.25 0.44 0.86 1.54 2.47 2.83 2.36 1.58 0.97 0.75 0.63 0.52
0.18 0.21 0.22 0.23 0.24 0.20 0.21 0.22 0.21 0.23 0.19 0.06 0.03 0.05 0.15 0.21 0.20 0.15 0.15 0.16 0.15 0.16 0.17 0.17 0.17 0.20 0.27 0.36 0.52 0.82 1.33 2.03 2.41 2.17 1.61 1.11 0.79 0.57
0.19 0.23 0.24 0.23 0.22 0.20 0.21 0.22 0.20 0.18 0.19 0.11 0.04 0.05 0.10 0.18 0.26 0.26 0.21 0.19 0.18 0.18 0.18 0.19 0.22 0.21 0.23 0.30 0.43 0.60 0.83 1.21 1.75 2.02 1.89 1.57 1.16 0.83
0.20 0.23 0.23 0.22 0.21 0.20 0.23 0.22 0.17 0.16 0.18 0.16 0.07 0.05 0.09 0.12 0.23 0.34 0.29 0.25 0.23 0.21 0.20 0.20 0.23 0.26 0.23 0.22 0.28 0.42 0.55 0.68 0.96 1.48 1.80 1.68 1.53 1.26
0.13 0.12 0.19 0.30 0.29 0.27 0.26 0.19 0.16 0.15 0.16 0.17 0.11 0.08 0.10 0.13 0.20 0.31 0.37 0.36 0.30 0.25 0.24 0.22 0.24 0.30 0.28 0.20 0.14 0.20 0.35 0.56 0.76 1.04 1.42 1.60 1.51 1.46
0.04 0.06 0.16 0.28 0.30 0.36 0.37 0.27 0.19 0.17 0.17 0.18 0.17 0.16 0.17 0.20 0.23 0.26 0.37 0.45 0.41 0.35 0.29 0.23 0.23 0.22 0.24 0.22 0.18 0.16 0.21 0.32 0.51 0.76 1.02 1.25 1.37 1.40
0.05 0.05 0.09 0.20 0.21 0.22 0.27 0.28 0.29 0.31 0.27 0.22 0.24 0.26 0.27 0.28 0.26 0.29 0.34 0.43 0.48 0.46 0.39 0.29 0.26 0.27 0.23 0.21 0.21 0.17 0.17 0.22 0.34 0.54 0.76 0.94 1.11 1.24
0.06 0.05 0.07 0.15 0.20 0.22 0.17 0.16 0.18 0.26 0.35 0.32 0.34 0.34 0.32 0.29 0.28 0.31 0.32 0.36 0.45 0.58 0.57 0.45 0.34 0.30 0.28 0.31 0.31 0.22 0.18 0.19 0.26 0.39 0.57 0.75 0.88 1.00
0.04 0.05 0.05 0.09 0.20 0.22 0.11 0.13 0.18 0.27 0.39 0.42 0.50 0.49 0.38 0.31 0.29 0.35 0.38 0.33 0.35 0.52 0.63 0.60 0.50 0.37 0.38 0.40 0.38 0.28 0.21 0.19 0.23 0.34 0.47 0.60 0.73 0.83
0.02 0.03 0.04 0.07 0.14 0.12 0.03 0.07 0.11 0.17 0.23 0.31 0.35 0.40 0.38 0.38 0.41 0.44 0.51 0.44 0.42 0.52 0.61 0.69 0.72 0.56 0.57 0.63 0.53 0.37 0.26 0.23 0.25 0.30 0.36 0.43 0.56 0.72
0.01 0.01 0.04 0.10 0.09 0.08 0.02 0.04 0.12 0.11 0.13 0.15 0.18 0.25 0.32 0.38 0.47 0.61 0.78 0.67 0.53 0.60 0.68 0.71 0.84 0.70 0.71 0.82 0.70 0.46 0.31 0.31 0.33 0.34 0.32 0.30 0.35 0.46
0.01 0.01 0.02 0.07 0.04 0.05 0.04 0.05 0.14 0.10 0.07 0.11 0.14 0.20 0.26 0.34 0.47 0.62 0.80 0.86 0.68 0.60 0.68 0.71 0.86 0.74 0.63 0.73 0.75 0.66 0.41 0.31 0.33 0.41 0.41 0.34 0.28 0.26
0.01 0.01 0.02 0.03 0.01 0.01 0.02 0.03 0.03 0.03 0.03 0.06 0.08 0.14 0.22 0.31 0.42 0.57 0.76 0.88 0.86 0.70 0.60 0.60 0.73 0.70 0.52 0.47 0.61 0.72 0.57 0.39 0.32 0.37 0.43 0.51 0.42 0.30
0.01 0.01 0.01 0.01 0.00 0.00 0.00 0.01 0.00 0.01 0.02 0.04 0.07 0.13 0.21 0.30 0.35 0.40 0.54 0.76 0.85 0.82 0.72 0.65 0.68 0.73 0.60 0.45 0.44 0.56 0.60 0.58 0.44 0.39 0.40 0.42 0.34 0.24
0.00 0.00 0.00 0.00 0.00 0.00 0.00 0.00 0.00 0.01 0.02 0.03 0.05 0.08 0.11 0.16 0.26 0.36 0.42 0.59 0.74 0.86 0.89 0.87 0.90 0.96 0.87 0.66 0.47 0.44 0.41 0.54 0.58 0.47 0.41 0.41 0.34 0.19
0.00 0.00 0.00 0.00 0.00 0.00 0.00 0.00 0.00 0.00 0.00 0.01 0.02 0.03 0.06 0.10 0.19 0.29 0.42 0.54 0.66 0.81 0.93 1.04 1.06 1.11 1.15 1.04 0.81 0.60 0.39 0.33 0.44 0.46 0.41 0.41 0.42 0.29
0.00 0.00 0.00 0.00 0.00 0.00 0.00 0.00 0.00 0.00 0.00 0.00 0.01 0.02 0.06 0.10 0.15 0.21 0.32 0.47 0.63 0.74 0.79 0.89 0.94 1.01 1.22 1.40 1.19 0.78 0.49 0.32 0.36 0.43 0.40 0.38 0.46 0.43
0.00 0.00 0.00 0.00 0.00 0.00 0.00 0.00 0.00 0.00 0.00 0.00 0.00 0.01 0.03 0.07 0.10 0.15 0.22 0.35 0.53 0.67 0.74 0.74 0.74 0.78 0.95 1.29 1.48 1.06 0.60 0.37 0.32 0.43 0.50 0.42 0.40 0.44
0.01 0.01 0.01 0.00 0.00 0.00 0.00 0.00 0.00 0.00 0.00 0.00 0.00 0.00 0.01 0.03 0.07 0.11 0.16 0.26 0.39 0.54 0.62 0.67 0.71 0.75 0.74 0.78 0.98 1.16 0.92 0.51 0.30 0.34 0.50 0.56 0.51 0.46
0.01 0.02 0.02 0.01 0.01 0.00 0.00 0.00 0.00 0.00 0.00 0.00 0.00 0.00 0.00 0.01 0.04 0.07 0.11 0.17 0.26 0.39 0.50 0.56 0.67 0.71 0.75 0.67 0.65 0.84 0.99 0.83 0.44 0.26 0.31 0.43 0.46 0.41
0.02 0.02 0.02 0.02 0.01 0.01 0.00 0.00 0.00 0.00 0.00 0.00 0.00 0.00 0.00 0.00 0.01 0.04 0.07 0.10 0.17 0.26 0.39 0.50 0.56 0.64 0.77 0.81 0.80 0.77 0.84 0.94 0.82 0.52 0.28 0.21 0.20 0.21
0.04 0.03 0.03 0.03 0.02 0.02 0.01 0.00 0.00 0.00 0.00 0.00 0.00 0.00 0.00 0.00 0.00 0.01 0.03 0.06 0.10 0.16 0.25 0.38 0.49 0.54 0.68 0.80 0.83 0.78 0.71 0.72 0.74 0.66 0.59 0.40 0.23 0.15